Regional Weather Roundup
Issued by NWS New Orleans/Baton Rouge, LA

Home | Current Version | Previous Version | Graphics & Text | Print | Product List | Glossary On
Versions: 1 2 3 4 5 6 7 8 9 10 11 12 13 14 15 16 17 18 19 20 21 22 23 24 25 26 27 28 29 30 31 32 33 34 35 36 37 38 39 40 41 42 43 44 45 46 47 48 49 50
377
ASUS44 KLIX 260610
RWRLIX
NEW ORLEANS REGIONAL WEATHER ROUNDUP
NATIONAL WEATHER SERVICE NEW ORLEANS LA
100 AM CDT SAT JUL 26 2014

NOTE: "FAIR" INDICATES FEW OR NO CLOUDS BELOW 12,000 FEET WITH NO
      SIGNIFICANT WEATHER AND/OR OBSTRUCTIONS TO VISIBILITY.
      SKY/WX - SKY CONDITION AND SIGNIFICANT WEATHER.
      TMP - AIR TEMPERATURE.     DP    - DEWPOINT TEMPERATURE.
      RH  - RELATIVE HUMIDITY.   PRES  - PRESSURE.
      HI  - HEAT INDEX.          WCI   - WIND CHILL INDEX.

*  THESE STATIONS ARE NOT NWS OR FAA STATIONS AND ARE NOT UNDER
   NWS QUALITY CONTROL.

LAZ038-040-048-061>063-065>067-069-260700-
SOUTHEAST LOUISIANA

CITY           SKY/WX    TMP DP  RH WIND       PRES   REMARKS
N.O. AUDUBON     N/A     82  76  83 MISG        N/A
6HR MIN TEMP:  81; 6HR MAX TEMP:  85;

N.O. INTL ARPT MOCLDY    80  75  84 SW8       30.02F
6HR MIN TEMP:  80; 6HR MAX TEMP:  83;

N.O. LAKEFRONT MOCLDY    82  76  81 SW10      30.02F
6HR MIN TEMP:  82; 6HR MAX TEMP:  85;

N.O. DOWNTOWN*   N/A     82  73  74 S3        30.02F
6HR MIN TEMP:  82; 6HR MAX TEMP:  84;

SLIDELL        MOCLDY    79  75  87 CALM      30.02F
6HR MIN TEMP:  79; 6HR MAX TEMP:  86;

BATON ROUGE    MOCLDY    81  74  79 SW9       30.02S
6HR MIN TEMP:  81; 6HR MAX TEMP:  90;

BOOTHVILLE     PTCLDY    83  75  77 W9        30.05S
6HR MIN TEMP:  83; 6HR MAX TEMP:  85;

BELLE CHASSE   PTCLDY    78  74  87 SW6       30.02F
6HR MIN TEMP:  78; 6HR MAX TEMP:  82;

BOGALUSA*        N/A     77  73  88 CALM      30.04S
6HR MIN TEMP:  77; 6HR MAX TEMP:  85; 6HR PCP:  0.38;

GALLIANO*      NOT AVBL
NEW ROADS*       N/A     78  74  87 CALM      30.02S
6HR MIN TEMP:  78; 6HR MAX TEMP:  90;

GONZALES*        N/A     78  78 100 CALM      30.02S
6HR MIN TEMP:  77; 6HR MAX TEMP:  81; 6HR PCP:  0.56;

HAMMOND*       MOCLDY    79  73  83 CALM      30.04S
HOUMA*         PTCLDY    78  73  83 CALM      30.03F
6HR MIN TEMP:  78; 6HR MAX TEMP:  86;

PORT FOURCHON* CLEAR     84  75  74 SW6       30.05F

$$

MSZ070-080>082-260700-
SOUTHERN MISSISSIPPI

CITY           SKY/WX    TMP DP  RH WIND       PRES   REMARKS
MCCOMB         CLEAR     77  74  90 S3        30.03S
6HR MIN TEMP:  77; 6HR MAX TEMP:  88;

GULFPORT       MOCLDY    80  75  84 CALM      30.01F
6HR MIN TEMP:  80; 6HR MAX TEMP:  85;

BILOXI         MOCLDY    80  77  91 SW5       30.02R
6HR MIN TEMP:  78; 6HR MAX TEMP:  83;

PASCAGOULA     MOCLDY    77  75  93 CALM      30.02S
6HR MIN TEMP:  77; 6HR MAX TEMP:  83;


$$

COASTAL OBSERVATIONS
LAKE AND NEARSHORE STATIONS

STATION/POSITION TIME  TEMP    WIND        PRES    WAVE
                       AIR SEA DIR/SP/G            HT/PER
                 (UTC) (F)     (DEG/KT/KT) (MB)    (FT/S)
PASCAGOULA       0600   83                 1016.0
WAVELAND YACHT   0600   81                 1016.1
GRAND ISLE       0600   83 86              1017.8
SOUTHWEST PASS   0600   84 85              1017.8
NEW CANAL        0600   82 83              1017.1
SHELL BEACH      0600   82 81              1016.6

OFFSHORE STATIONS

STATION/POSITION TIME  TEMP    WIND        PRES    WAVE
                       AIR SEA DIR/SP/G            HT/PER
                 (UTC) (F)     (DEG/KT/KT) (MB)    (FT/S)
64 S DAUPHIN ISL 0453   84 85  250/ 14/ 16 1017.6

$$




USA.gov is the U.S. government's official web portal to all federal, state and local government web resources and services.